Location: Unspecified
(0.0000°N, 0.0000°E)
Time: 18:09:52
(UTC+00:00)

Vanguard 3 - Pass Details

Date: 07 February 2023
Orbit: 509 x 3249 km, 33.3° (Epoch: 20 March)

Event Time Altitude Azimuth Distance (km) Brightness Sun altitude
Rises 02:35:53 0° 297° (WNW) 6,999 - -51.8°
Reaches altitude 10° 02:40:30 10° 294° (WNW) 6,113 - -50.7°
Maximum altitude 03:00:04 61° 218° (SW) 3,319 - -46.2°
Exits shadow 03:00:23 61° 214° (SW) 3,309 9.9 -46.2°
Drops below altitude 10° 03:15:16 10° 140° (SE) 4,863 11.6 -42.7°
Sets 03:18:30 0° 136° (SE) 5,555 12.1 -41.9°
